sat.trackr.live / text

‹ back to catalog

STARLINK-35113

NORAD 65697 · 2025-212X

PAYLOAD ACTIVE UNKNOWN

§ Identity

Operator
Country
US
Launch date
2025-09-21
Launch site
AFETR
Launch vehicle
Mass (kg)
RCS (m²)

Purposes: comms

External: N2YO · Heavens-Above · Gunter

§ Orbital elements

Epoch: 2026-09-19T22:53:17.306592Z

Period
93.85 min
Inclination
53.1568°
Eccentricity
0.0001084
Mean motion
15.34406763 rev/d
Perigee alt
461.9 km
Apogee alt
463.4 km
Semi-major
6,840.8 km
B*
2.9396e-4
RAAN
158.5541°
Arg perigee
96.7234°
Mean anomaly
263.3892°
Rev number
5,705

§ Raw data

STARLINK-351131 65697U 25212X   26262.95367253  .00009571  00000+0  29396-3 0  99962 65697  53.1568 158.5541 0001084  96.7234 263.3892 15.34406763 57055

JSON: /api/v1/satellites/65697 · /tle

For live sub-satellite position, see the globe view (requires WebGL).

§ Visibility from observer

Set your observer location to see the next 7 days of passes ≥ 10°. The values pass through the URL so the page stays shareable.

No JS? Fill the form by hand. The geolocation button needs JavaScript.